Time,TemperatureF,DewpointF,PressureIn,WindDirection,WindDirectionDegrees,WindSpeedMPH,WindSpeedGustMPH,Humidity,HourlyPrecipIn,Conditions,Clouds,dailyrainin,SoftwareType,DateUTC
2015-07-31 00:00:00,66.6,58.1,29.95,West,274,1.0,4.0,74,0.00,,---,0.00,VWS V15.00,2015-07-31 05:00:00,
2015-07-31 00:05:00,66.6,58.1,29.95,West,275,1.0,4.0,74,0.00,,---,0.00,VWS V15.00,2015-07-31 05:05:00,
2015-07-31 00:10:00,66.7,58.2,29.95,West,273,1.0,3.0,74,0.00,,---,0.00,VWS V15.00,2015-07-31 05:10:00,
2015-07-31 00:15:00,66.7,58.2,29.95,West,273,3.0,5.0,74,0.00,,---,0.00,VWS V15.00,2015-07-31 05:15:00,
2015-07-31 00:20:00,66.7,58.2,29.95,West,271,1.0,4.0,74,0.00,,---,0.00,VWS V15.00,2015-07-31 05:20:00,
2015-07-31 00:25:00,66.7,58.2,29.95,West,273,0.0,4.0,74,0.00,,---,0.00,VWS V15.00,2015-07-31 05:25:00,
2015-07-31 00:30:00,66.7,58.2,29.95,West,277,2.0,6.0,74,0.00,,---,0.00,VWS V15.00,2015-07-31 05:30:00,
2015-07-31 00:35:00,66.7,58.2,29.95,West,276,3.0,4.0,74,0.00,,---,0.00,VWS V15.00,2015-07-31 05:35:00,
2015-07-31 00:40:00,66.7,58.5,29.95,West,276,2.0,3.0,75,0.00,,---,0.00,VWS V15.00,2015-07-31 05:40:00,
2015-07-31 00:45:00,66.6,58.4,29.95,West,277,1.0,4.0,75,0.00,,---,0.00,VWS V15.00,2015-07-31 05:45:00,
2015-07-31 00:50:00,66.5,58.3,29.95,West,277,0.0,5.0,75,0.00,,---,0.00,VWS V15.00,2015-07-31 05:50:00,
2015-07-31 00:55:00,66.5,58.3,29.95,West,275,3.0,4.0,75,0.00,,---,0.00,VWS V15.00,2015-07-31 05:55:00,
2015-07-31 01:00:00,66.4,58.2,29.95,West,275,1.0,4.0,75,0.00,,---,0.00,VWS V15.00,2015-07-31 06:00:00,
2015-07-31 01:05:00,66.3,58.5,29.94,West,275,1.0,3.0,76,0.00,,---,0.00,VWS V15.00,2015-07-31 06:05:00,
2015-07-31 01:15:00,66.0,58.2,29.95,West,275,1.0,2.0,76,0.00,,---,0.00,VWS V15.00,2015-07-31 06:15:00,
2015-07-31 01:20:00,65.9,58.5,29.95,West,275,0.0,2.0,77,0.00,,---,0.00,VWS V15.00,2015-07-31 06:20:00,
2015-07-31 01:25:00,65.7,58.3,29.94,West,275,0.0,3.0,77,0.00,,---,0.00,VWS V15.00,2015-07-31 06:25:00,
2015-07-31 01:30:00,65.6,58.2,29.94,West,275,0.0,1.0,77,0.00,,---,0.00,VWS V15.00,2015-07-31 06:30:00,
2015-07-31 01:35:00,65.4,58.4,29.94,West,275,0.0,4.0,78,0.00,,---,0.00,VWS V15.00,2015-07-31 06:35:00,
2015-07-31 01:40:00,65.3,58.3,29.94,West,275,5.0,5.0,78,0.00,,---,0.00,VWS V15.00,2015-07-31 06:40:00,
2015-07-31 01:45:00,65.3,58.6,29.94,West,265,4.0,5.0,79,0.00,,---,0.00,VWS V15.00,2015-07-31 06:45:00,
2015-07-31 01:50:00,65.2,58.5,29.94,West,261,1.0,5.0,79,0.00,,---,0.00,VWS V15.00,2015-07-31 06:50:00,
2015-07-31 01:55:00,65.0,58.3,29.94,West,261,1.0,4.0,79,0.00,,---,0.00,VWS V15.00,2015-07-31 06:55:00,
2015-07-31 02:00:00,64.9,58.2,29.94,West,261,0.0,3.0,79,0.00,,---,0.00,VWS V15.00,2015-07-31 07:00:00,
2015-07-31 02:05:00,64.7,58.4,29.94,West,261,0.0,4.0,80,0.00,,---,0.00,VWS V15.00,2015-07-31 07:05:00,
2015-07-31 02:10:00,64.5,58.2,29.94,West,261,2.0,4.0,80,0.00,,---,0.00,VWS V15.00,2015-07-31 07:10:00,
2015-07-31 02:15:00,64.5,58.2,29.94,West,261,1.0,5.0,80,0.00,,---,0.00,VWS V15.00,2015-07-31 07:15:00,
2015-07-31 02:20:00,64.5,58.5,29.94,West,261,4.0,5.0,81,0.00,,---,0.00,VWS V15.00,2015-07-31 07:20:00,
2015-07-31 02:25:00,64.5,58.2,29.94,West,260,3.0,4.0,80,0.00,,---,0.00,VWS V15.00,2015-07-31 07:25:00,
2015-07-31 02:30:00,64.5,58.5,29.94,WSW,257,3.0,5.0,81,0.00,,---,0.00,VWS V15.00,2015-07-31 07:30:00,
2015-07-31 02:35:00,64.4,58.5,29.94,WSW,257,1.0,4.0,81,0.00,,---,0.00,VWS V15.00,2015-07-31 07:35:00,
2015-07-31 02:40:00,64.2,58.3,29.94,WSW,257,3.0,4.0,81,0.00,,---,0.00,VWS V15.00,2015-07-31 07:40:00,
2015-07-31 02:45:00,64.1,58.2,29.94,WSW,252,4.0,5.0,81,0.00,,---,0.00,VWS V15.00,2015-07-31 07:45:00,
2015-07-31 02:50:00,64.0,58.4,29.94,WSW,252,3.0,5.0,82,0.00,,---,0.00,VWS V15.00,2015-07-31 07:50:00,
2015-07-31 02:55:00,64.0,58.4,29.94,WSW,251,0.0,5.0,82,0.00,,---,0.00,VWS V15.00,2015-07-31 07:55:00,
2015-07-31 03:00:00,64.0,58.4,29.94,WSW,252,4.0,5.0,82,0.00,,---,0.00,VWS V15.00,2015-07-31 08:00:00,
2015-07-31 03:05:00,64.1,58.5,29.94,WSW,244,5.0,8.0,82,0.00,,---,0.00,VWS V15.00,2015-07-31 08:05:00,
2015-07-31 03:10:00,64.3,58.7,29.94,WSW,246,4.0,7.0,82,0.00,,---,0.00,VWS V15.00,2015-07-31 08:10:00,
2015-07-31 03:15:00,64.4,58.5,29.94,WSW,252,2.0,7.0,81,0.00,,---,0.00,VWS V15.00,2015-07-31 08:15:00,
2015-07-31 03:20:00,64.4,58.5,29.94,WSW,254,3.0,5.0,81,0.00,,---,0.00,VWS V15.00,2015-07-31 08:20:00,
2015-07-31 03:25:00,64.5,58.5,29.94,WSW,254,3.0,8.0,81,0.00,,---,0.00,VWS V15.00,2015-07-31 08:25:00,
2015-07-31 03:30:00,64.5,58.9,29.94,WSW,257,4.0,6.0,82,0.00,,---,0.00,VWS V15.00,2015-07-31 08:30:00,
2015-07-31 03:35:00,64.6,59.0,29.94,WSW,254,4.0,6.0,82,0.00,,---,0.00,VWS V15.00,2015-07-31 08:35:00,
2015-07-31 03:40:00,64.6,58.7,29.94,WSW,258,4.0,7.0,81,0.00,,---,0.00,VWS V15.00,2015-07-31 08:40:00,
2015-07-31 03:45:00,64.5,58.9,29.94,WSW,254,4.0,5.0,82,0.00,,---,0.00,VWS V15.00,2015-07-31 08:45:00,
2015-07-31 03:50:00,64.4,58.8,29.94,WSW,246,4.0,5.0,82,0.00,,---,0.00,VWS V15.00,2015-07-31 08:50:00,
2015-07-31 03:55:00,64.3,58.7,29.94,WSW,252,3.0,6.0,82,0.00,,---,0.00,VWS V15.00,2015-07-31 08:55:00,
2015-07-31 04:00:00,64.3,58.7,29.94,WSW,250,4.0,5.0,82,0.00,,---,0.00,VWS V15.00,2015-07-31 09:00:00,
2015-07-31 04:05:00,64.2,58.9,29.94,WSW,253,5.0,5.0,83,0.00,,---,0.00,VWS V15.00,2015-07-31 09:05:00,
2015-07-31 04:10:00,64.2,58.9,29.93,WSW,254,2.0,5.0,83,0.00,,---,0.00,VWS V15.00,2015-07-31 09:10:00,
2015-07-31 04:15:00,64.2,58.9,29.93,WSW,252,4.0,5.0,83,0.00,,---,0.00,VWS V15.00,2015-07-31 09:15:00,
2015-07-31 04:20:00,64.2,58.9,29.93,WSW,250,4.0,5.0,83,0.00,,---,0.00,VWS V15.00,2015-07-31 09:20:00,
2015-07-31 04:25:00,64.3,59.0,29.93,WSW,249,2.0,8.0,83,0.00,,---,0.00,VWS V15.00,2015-07-31 09:25:00,
2015-07-31 04:30:00,64.3,59.0,29.93,WSW,253,3.0,5.0,83,0.00,,---,0.00,VWS V15.00,2015-07-31 09:30:00,
2015-07-31 04:35:00,64.3,58.7,29.93,WSW,254,5.0,5.0,82,0.00,,---,0.00,VWS V15.00,2015-07-31 09:35:00,
2015-07-31 04:40:00,64.3,58.7,29.93,WSW,257,3.0,8.0,82,0.00,,---,0.00,VWS V15.00,2015-07-31 09:40:00,
2015-07-31 04:45:00,64.3,58.7,29.93,WSW,249,2.0,6.0,82,0.00,,---,0.00,VWS V15.00,2015-07-31 09:45:00,
2015-07-31 04:50:00,64.2,58.6,29.93,WSW,252,3.0,6.0,82,0.00,,---,0.00,VWS V15.00,2015-07-31 09:50:00,
2015-07-31 04:55:00,64.2,58.9,29.93,WSW,256,2.0,6.0,83,0.00,,---,0.00,VWS V15.00,2015-07-31 09:55:00,
2015-07-31 05:00:00,64.1,58.8,29.93,WSW,251,2.0,6.0,83,0.00,,---,0.00,VWS V15.00,2015-07-31 10:00:00,
2015-07-31 05:05:00,64.1,58.8,29.93,WSW,252,4.0,6.0,83,0.00,,---,0.00,VWS V15.00,2015-07-31 10:05:00,
2015-07-31 05:10:00,64.0,58.7,29.93,WSW,253,1.0,5.0,83,0.00,,---,0.00,VWS V15.00,2015-07-31 10:10:00,
2015-07-31 05:15:00,64.0,58.7,29.93,WSW,253,3.0,5.0,83,0.00,,---,0.00,VWS V15.00,2015-07-31 10:15:00,
2015-07-31 05:20:00,63.8,58.5,29.93,WSW,253,3.0,5.0,83,0.00,,---,0.00,VWS V15.00,2015-07-31 10:20:00,
2015-07-31 05:25:00,63.7,58.5,29.93,WSW,252,1.0,5.0,83,0.00,,---,0.00,VWS V15.00,2015-07-31 10:25:00,
2015-07-31 05:30:00,63.6,58.7,29.93,WSW,252,1.0,4.0,84,0.00,,---,0.00,VWS V15.00,2015-07-31 10:30:00,
2015-07-31 05:35:00,63.6,58.7,29.93,WSW,252,3.0,4.0,84,0.00,,---,0.00,VWS V15.00,2015-07-31 10:35:00,
2015-07-31 05:40:00,63.5,58.6,29.93,WSW,250,4.0,6.0,84,0.00,,---,0.00,VWS V15.00,2015-07-31 10:40:00,
2015-07-31 05:45:00,63.5,58.6,29.93,WSW,248,3.0,6.0,84,0.00,,---,0.00,VWS V15.00,2015-07-31 10:45:00,
2015-07-31 05:50:00,63.6,58.7,29.93,West,265,1.0,6.0,84,0.00,,---,0.00,VWS V15.00,2015-07-31 10:50:00,
2015-07-31 05:55:00,63.8,58.9,29.93,West,261,3.0,4.0,84,0.00,,---,0.00,VWS V15.00,2015-07-31 10:55:00,
2015-07-31 06:00:00,64.1,59.2,29.93,WSW,254,3.0,5.0,84,0.00,,---,0.00,VWS V15.00,2015-07-31 11:00:00,
2015-07-31 06:05:00,64.4,59.5,29.93,WSW,248,3.0,7.0,84,0.00,,---,0.00,VWS V15.00,2015-07-31 11:05:00,
2015-07-31 06:10:00,64.8,59.5,29.93,WSW,252,1.0,6.0,83,0.00,,---,0.00,VWS V15.00,2015-07-31 11:10:00,
2015-07-31 06:15:00,65.2,59.6,29.93,WSW,250,4.0,7.0,82,0.00,,---,0.00,VWS V15.00,2015-07-31 11:15:00,
2015-07-31 06:20:00,65.5,59.9,29.93,WSW,258,5.0,5.0,82,0.00,,---,0.00,VWS V15.00,2015-07-31 11:20:00,
2015-07-31 06:25:00,65.9,60.3,29.93,WSW,252,2.0,4.0,82,0.00,,---,0.00,VWS V15.00,2015-07-31 11:25:00,
2015-07-31 06:30:00,66.6,60.6,29.93,WSW,252,4.0,4.0,81,0.00,,---,0.00,VWS V15.00,2015-07-31 11:30:00,
2015-07-31 06:35:00,67.4,61.0,29.93,WSW,250,1.0,5.0,80,0.00,,---,0.00,VWS V15.00,2015-07-31 11:35:00,
2015-07-31 06:40:00,68.3,61.5,29.93,WSW,251,2.0,5.0,79,0.00,,---,0.00,VWS V15.00,2015-07-31 11:40:00,
2015-07-31 06:45:00,69.1,61.6,29.93,WSW,252,2.0,3.0,77,0.00,,---,0.00,VWS V15.00,2015-07-31 11:45:00,
2015-07-31 06:50:00,69.9,61.6,29.93,West,259,2.0,7.0,75,0.00,,---,0.00,VWS V15.00,2015-07-31 11:50:00,
2015-07-31 06:55:00,70.5,61.8,29.93,West,259,0.0,6.0,74,0.00,,---,0.00,VWS V15.00,2015-07-31 11:55:00,
2015-07-31 07:00:00,70.8,61.7,29.94,WSW,237,2.0,5.0,73,0.00,,---,0.00,VWS V15.00,2015-07-31 12:00:00,
2015-07-31 07:05:00,71.2,62.1,29.94,WSW,250,3.0,7.0,73,0.00,,---,0.00,VWS V15.00,2015-07-31 12:05:00,
2015-07-31 07:10:00,71.8,62.3,29.93,WSW,254,7.0,8.0,72,0.00,,---,0.00,VWS V15.00,2015-07-31 12:10:00,
2015-07-31 07:15:00,72.1,62.2,29.93,WSW,248,4.0,8.0,71,0.00,,---,0.00,VWS V15.00,2015-07-31 12:15:00,
2015-07-31 07:20:00,72.3,62.8,29.93,West,266,5.0,5.0,72,0.00,,---,0.00,VWS V15.00,2015-07-31 12:20:00,
2015-07-31 07:25:00,72.8,62.9,29.93,WSW,248,1.0,6.0,71,0.00,,---,0.00,VWS V15.00,2015-07-31 12:25:00,
2015-07-31 07:30:00,73.1,62.7,29.93,WSW,252,4.0,7.0,70,0.00,,---,0.00,VWS V15.00,2015-07-31 12:30:00,
2015-07-31 07:35:00,73.3,62.9,29.93,West,271,3.0,10.0,70,0.00,,---,0.00,VWS V15.00,2015-07-31 12:35:00,
2015-07-31 07:40:00,73.7,62.9,29.93,WNW,285,5.0,8.0,69,0.00,,---,0.00,VWS V15.00,2015-07-31 12:40:00,
2015-07-31 07:45:00,73.9,62.7,29.93,WSW,250,5.0,8.0,68,0.00,,---,0.00,VWS V15.00,2015-07-31 12:45:00,
2015-07-31 07:50:00,74.2,63.0,29.93,West,276,2.0,9.0,68,0.00,,---,0.00,VWS V15.00,2015-07-31 12:50:00,
2015-07-31 07:55:00,74.4,63.2,29.93,WNW,296,5.0,10.0,68,0.00,,---,0.00,VWS V15.00,2015-07-31 12:55:00,
2015-07-31 08:00:00,74.7,63.0,29.93,WSW,254,1.0,8.0,67,0.00,,---,0.00,VWS V15.00,2015-07-31 13:00:00,
2015-07-31 08:05:00,75.0,63.3,29.93,NW,314,6.0,9.0,67,0.00,,---,0.00,VWS V15.00,2015-07-31 13:05:00,
2015-07-31 08:10:00,75.4,63.7,29.93,West,272,1.0,7.0,67,0.00,,---,0.00,VWS V15.00,2015-07-31 13:10:00,
2015-07-31 08:15:00,75.8,64.1,29.93,West,267,7.0,10.0,67,0.00,,---,0.00,VWS V15.00,2015-07-31 13:15:00,
2015-07-31 08:20:00,76.4,64.6,29.92,WNW,285,5.0,7.0,67,0.00,,---,0.00,VWS V15.00,2015-07-31 13:20:00,
2015-07-31 08:25:00,76.8,63.7,29.92,WNW,290,10.0,10.0,64,0.00,,---,0.00,VWS V15.00,2015-07-31 13:25:00,
2015-07-31 08:30:00,76.6,63.1,29.92,West,260,4.0,12.0,63,0.00,,---,0.00,VWS V15.00,2015-07-31 13:30:00,
2015-07-31 08:35:00,76.7,63.2,29.92,West,281,5.0,10.0,63,0.00,,---,0.00,VWS V15.00,2015-07-31 13:35:00,
2015-07-31 08:39:00,76.9,63.8,29.92,WSW,257,3.0,10.0,64,0.00,,---,0.00,VWS V15.00,2015-07-31 13:39:00,
2015-07-31 08:44:00,77.4,64.3,29.92,WNW,299,4.0,10.0,64,0.00,,---,0.00,VWS V15.00,2015-07-31 13:44:00,
2015-07-31 08:49:00,77.6,64.0,29.92,West,267,8.0,8.0,63,0.00,,---,0.00,VWS V15.00,2015-07-31 13:49:00,
2015-07-31 08:54:00,77.9,64.3,29.92,WNW,295,1.0,7.0,63,0.00,,---,0.00,VWS V15.00,2015-07-31 13:54:00,
2015-07-31 08:59:00,78.4,63.8,29.92,West,281,15.0,15.0,61,0.00,,---,0.00,VWS V15.00,2015-07-31 13:59:00,
2015-07-31 09:04:00,78.6,63.6,29.92,WSW,249,7.0,8.0,60,0.00,,---,0.00,VWS V15.00,2015-07-31 14:04:00,
2015-07-31 09:09:00,78.6,63.1,29.92,West,263,1.0,13.0,59,0.00,,---,0.00,VWS V15.00,2015-07-31 14:09:00,
2015-07-31 09:14:00,78.7,63.2,29.92,West,273,3.0,12.0,59,0.00,,---,0.00,VWS V15.00,2015-07-31 14:14:00,
2015-07-31 09:19:00,79.0,63.5,29.92,West,281,12.0,14.0,59,0.00,,---,0.00,VWS V15.00,2015-07-31 14:19:00,
2015-07-31 09:24:00,78.8,62.8,29.92,WNW,301,6.0,14.0,58,0.00,,---,0.00,VWS V15.00,2015-07-31 14:24:00,
2015-07-31 09:29:00,78.8,62.8,29.92,West,279,12.0,18.0,58,0.00,,---,0.00,VWS V15.00,2015-07-31 14:29:00,
2015-07-31 09:34:00,79.0,63.5,29.92,West,268,7.0,10.0,59,0.00,,---,0.00,VWS V15.00,2015-07-31 14:34:00,
2015-07-31 09:39:00,79.5,63.4,29.91,WNW,296,4.0,17.0,58,0.00,,---,0.00,VWS V15.00,2015-07-31 14:39:00,
2015-07-31 09:44:00,79.6,62.5,29.91,West,280,12.0,12.0,56,0.00,,---,0.00,VWS V15.00,2015-07-31 14:44:00,
2015-07-31 09:49:00,80.1,62.5,29.91,WNW,286,14.0,21.0,55,0.00,,---,0.00,VWS V15.00,2015-07-31 14:49:00,
2015-07-31 09:54:00,80.0,61.9,29.91,NW,315,4.0,19.0,54,0.00,,---,0.00,VWS V15.00,2015-07-31 14:54:00,
2015-07-31 09:59:00,79.9,61.8,29.91,WNW,288,12.0,12.0,54,0.00,,---,0.00,VWS V15.00,2015-07-31 14:59:00,
2015-07-31 10:04:00,79.8,61.2,29.91,NNW,329,13.0,17.0,53,0.00,,---,0.00,VWS V15.00,2015-07-31 15:04:00,
2015-07-31 10:09:00,79.7,60.0,29.91,WNW,283,6.0,20.0,51,0.00,,---,0.00,VWS V15.00,2015-07-31 15:09:00,
2015-07-31 10:14:00,79.8,59.5,29.91,NW,304,8.0,17.0,50,0.00,,---,0.00,VWS V15.00,2015-07-31 15:14:00,
2015-07-31 10:19:00,80.2,60.5,29.91,West,265,8.0,15.0,51,0.00,,---,0.00,VWS V15.00,2015-07-31 15:19:00,
2015-07-31 10:24:00,80.5,58.4,29.91,WNW,296,12.0,19.0,47,0.00,,---,0.00,VWS V15.00,2015-07-31 15:24:00,
2015-07-31 10:29:00,80.8,58.7,29.92,NNW,335,3.0,15.0,47,0.00,,---,0.00,VWS V15.00,2015-07-31 15:29:00,
2015-07-31 10:34:00,81.0,58.9,29.91,WNW,286,7.0,11.0,47,0.00,,---,0.00,VWS V15.00,2015-07-31 15:34:00,
2015-07-31 10:39:00,80.9,56.3,29.92,NW,321,12.0,21.0,43,0.00,,---,0.00,VWS V15.00,2015-07-31 15:39:00,
2015-07-31 10:44:00,80.6,56.1,29.91,WSW,239,8.0,17.0,43,0.00,,---,0.00,VWS V15.00,2015-07-31 15:44:00,
2015-07-31 10:49:00,80.3,57.7,29.92,NW,318,9.0,21.0,46,0.00,,---,0.00,VWS V15.00,2015-07-31 15:49:00,
2015-07-31 10:54:00,80.0,58.6,29.92,WNW,288,15.0,15.0,48,0.00,,---,0.00,VWS V15.00,2015-07-31 15:54:00,
2015-07-31 10:59:00,80.2,59.3,29.92,NW,322,11.0,17.0,49,0.00,,---,0.00,VWS V15.00,2015-07-31 15:59:00,
2015-07-31 11:04:00,80.3,58.8,29.92,NW,311,14.0,19.0,48,0.00,,---,0.00,VWS V15.00,2015-07-31 16:04:00,
2015-07-31 11:09:00,80.5,58.4,29.92,NW,308,3.0,15.0,47,0.00,,---,0.00,VWS V15.00,2015-07-31 16:09:00,
2015-07-31 11:14:00,80.6,58.5,29.92,WNW,285,5.0,15.0,47,0.00,,---,0.00,VWS V15.00,2015-07-31 16:14:00,
2015-07-31 11:19:00,80.3,56.4,29.92,NW,325,9.0,21.0,44,0.00,,---,0.00,VWS V15.00,2015-07-31 16:19:00,
2015-07-31 11:24:00,80.1,56.9,29.92,WNW,284,5.0,13.0,45,0.00,,---,0.00,VWS V15.00,2015-07-31 16:24:00,
2015-07-31 11:29:00,80.3,56.4,29.92,NW,323,24.0,24.0,44,0.00,,---,0.00,VWS V15.00,2015-07-31 16:29:00,
2015-07-31 11:34:00,80.4,56.5,29.92,NNW,328,5.0,13.0,44,0.00,,---,0.00,VWS V15.00,2015-07-31 16:34:00,
2015-07-31 11:39:00,80.3,55.1,29.92,West,274,9.0,20.0,42,0.00,,---,0.00,VWS V15.00,2015-07-31 16:39:00,
2015-07-31 11:44:00,80.4,56.5,29.92,North,11,8.0,16.0,44,0.00,,---,0.00,VWS V15.00,2015-07-31 16:44:00,
2015-07-31 11:49:00,80.6,56.1,29.91,NW,314,13.0,15.0,43,0.00,,---,0.00,VWS V15.00,2015-07-31 16:49:00,
2015-07-31 11:54:00,80.7,56.2,29.91,WNW,302,19.0,22.0,43,0.00,,---,0.00,VWS V15.00,2015-07-31 16:54:00,
2015-07-31 11:59:00,80.4,55.2,29.91,WSW,246,6.0,14.0,42,0.00,,---,0.00,VWS V15.00,2015-07-31 16:59:00,
2015-07-31 12:04:00,80.7,55.5,29.91,NW,321,8.0,15.0,42,0.00,,---,0.00,VWS V15.00,2015-07-31 17:04:00,
2015-07-31 12:09:00,80.9,55.7,29.91,West,274,9.0,11.0,42,0.00,,---,0.00,VWS V15.00,2015-07-31 17:09:00,
2015-07-31 12:14:00,81.0,55.8,29.91,West,273,6.0,14.0,42,0.00,,---,0.00,VWS V15.00,2015-07-31 17:14:00,
2015-07-31 12:19:00,81.3,56.0,29.91,WNW,297,12.0,16.0,42,0.00,,---,0.00,VWS V15.00,2015-07-31 17:19:00,
2015-07-31 12:24:00,81.3,55.4,29.91,NW,309,8.0,23.0,41,0.00,,---,0.00,VWS V15.00,2015-07-31 17:24:00,
2015-07-31 12:29:00,80.9,55.7,29.91,West,277,9.0,20.0,42,0.00,,---,0.00,VWS V15.00,2015-07-31 17:29:00,
2015-07-31 12:34:00,80.7,54.8,29.91,NNW,337,6.0,19.0,41,0.00,,---,0.00,VWS V15.00,2015-07-31 17:34:00,
2015-07-31 12:39:00,80.7,54.2,29.91,NNE,16,7.0,19.0,40,0.00,,---,0.00,VWS V15.00,2015-07-31 17:39:00,
2015-07-31 12:44:00,80.8,54.2,29.91,WNW,301,11.0,19.0,40,0.00,,---,0.00,VWS V15.00,2015-07-31 17:44:00,
2015-07-31 12:49:00,81.0,55.1,29.91,West,273,3.0,15.0,41,0.00,,---,0.00,VWS V15.00,2015-07-31 17:49:00,
2015-07-31 12:54:00,80.8,54.2,29.91,NW,316,18.0,18.0,40,0.00,,---,0.00,VWS V15.00,2015-07-31 17:54:00,
2015-07-31 12:59:00,79.8,53.4,29.91,WNW,303,8.0,17.0,40,0.00,,---,0.00,VWS V15.00,2015-07-31 17:59:00,
2015-07-31 13:04:00,79.8,56.0,29.91,West,280,3.0,14.0,44,0.00,,---,0.00,VWS V15.00,2015-07-31 18:04:00,
2015-07-31 13:09:00,80.5,55.3,29.90,WNW,296,1.0,14.0,42,0.00,,---,0.00,VWS V15.00,2015-07-31 18:09:00,
2015-07-31 13:14:00,80.9,55.0,29.90,NW,313,9.0,16.0,41,0.00,,---,0.00,VWS V15.00,2015-07-31 18:14:00,
2015-07-31 13:19:00,80.6,54.1,29.90,NW,306,13.0,26.0,40,0.00,,---,0.00,VWS V15.00,2015-07-31 18:19:00,
2015-07-31 13:24:00,80.7,54.8,29.90,NW,319,8.0,21.0,41,0.00,,---,0.00,VWS V15.00,2015-07-31 18:24:00,
2015-07-31 13:29:00,80.7,54.8,29.90,WNW,298,9.0,24.0,41,0.00,,---,0.00,VWS V15.00,2015-07-31 18:29:00,
2015-07-31 13:34:00,80.6,54.1,29.90,WNW,298,10.0,20.0,40,0.00,,---,0.00,VWS V15.00,2015-07-31 18:34:00,
2015-07-31 13:39:00,80.4,56.5,29.90,North,360,3.0,13.0,44,0.00,,---,0.00,VWS V15.00,2015-07-31 18:39:00,
2015-07-31 13:44:00,80.5,54.7,29.90,NW,314,12.0,19.0,41,0.00,,---,0.00,VWS V15.00,2015-07-31 18:44:00,
2015-07-31 13:49:00,80.3,55.1,29.90,NW,313,10.0,13.0,42,0.00,,---,0.00,VWS V15.00,2015-07-31 18:49:00,
2015-07-31 13:54:00,80.6,57.3,29.90,North,350,7.0,12.0,45,0.00,,---,0.00,VWS V15.00,2015-07-31 18:54:00,
2015-07-31 13:59:00,80.5,56.0,29.90,West,270,5.0,15.0,43,0.00,,---,0.00,VWS V15.00,2015-07-31 18:59:00,
2015-07-31 14:04:00,81.0,55.1,29.90,NW,305,5.0,18.0,41,0.00,,---,0.00,VWS V15.00,2015-07-31 19:04:00,
2015-07-31 14:09:00,81.2,56.0,29.90,North,5,1.0,12.0,42,0.00,,---,0.00,VWS V15.00,2015-07-31 19:09:00,
2015-07-31 14:14:00,81.2,55.3,29.90,WNW,284,8.0,18.0,41,0.00,,---,0.00,VWS V15.00,2015-07-31 19:14:00,
2015-07-31 14:19:00,81.2,55.3,29.89,NW,325,3.0,9.0,41,0.00,,---,0.00,VWS V15.00,2015-07-31 19:19:00,
2015-07-31 14:24:00,81.6,56.3,29.89,NNW,327,3.0,10.0,42,0.00,,---,0.00,VWS V15.00,2015-07-31 19:24:00,
2015-07-31 14:29:00,82.1,55.4,29.89,NNW,328,6.0,14.0,40,0.00,,---,0.00,VWS V15.00,2015-07-31 19:29:00,
2015-07-31 14:34:00,82.1,56.8,29.89,WSW,252,5.0,10.0,42,0.00,,---,0.00,VWS V15.00,2015-07-31 19:34:00,
2015-07-31 14:39:00,81.9,56.6,29.89,West,274,6.0,17.0,42,0.00,,---,0.00,VWS V15.00,2015-07-31 19:39:00,
2015-07-31 14:44:00,81.8,57.1,29.89,WNW,286,2.0,9.0,43,0.00,,---,0.00,VWS V15.00,2015-07-31 19:44:00,
2015-07-31 14:49:00,81.8,55.8,29.89,NW,315,6.0,16.0,41,0.00,,---,0.00,VWS V15.00,2015-07-31 19:49:00,
2015-07-31 14:54:00,81.5,55.5,29.89,West,279,6.0,16.0,41,0.00,,---,0.00,VWS V15.00,2015-07-31 19:54:00,
2015-07-31 14:59:00,81.6,55.0,29.89,WNW,296,7.0,20.0,40,0.00,,---,0.00,VWS V15.00,2015-07-31 19:59:00,
2015-07-31 15:04:00,81.5,56.2,29.89,NW,316,7.0,15.0,42,0.00,,---,0.00,VWS V15.00,2015-07-31 20:04:00,
2015-07-31 15:09:00,81.4,54.8,29.89,West,271,4.0,12.0,40,0.00,,---,0.00,VWS V15.00,2015-07-31 20:09:00,
2015-07-31 15:14:00,80.9,55.0,29.89,NNE,25,2.0,9.0,41,0.00,,---,0.00,VWS V15.00,2015-07-31 20:14:00,
2015-07-31 15:19:00,80.4,55.2,29.89,NNW,330,6.0,8.0,42,0.00,,---,0.00,VWS V15.00,2015-07-31 20:19:00,
2015-07-31 15:24:00,80.3,53.8,29.89,NNW,333,6.0,20.0,40,0.00,,---,0.00,VWS V15.00,2015-07-31 20:24:00,
2015-07-31 15:29:00,80.2,54.4,29.89,WNW,297,6.0,12.0,41,0.00,,---,0.00,VWS V15.00,2015-07-31 20:29:00,
2015-07-31 15:34:00,79.6,53.8,29.89,NW,319,3.0,18.0,41,0.00,,---,0.00,VWS V15.00,2015-07-31 20:34:00,
2015-07-31 15:39:00,79.5,55.7,29.89,NW,313,7.0,11.0,44,0.00,,---,0.00,VWS V15.00,2015-07-31 20:39:00,
2015-07-31 15:44:00,80.1,55.0,29.89,WNW,286,9.0,11.0,42,0.00,,---,0.00,VWS V15.00,2015-07-31 20:44:00,
2015-07-31 15:49:00,80.8,54.2,29.89,WSW,252,11.0,16.0,40,0.00,,---,0.00,VWS V15.00,2015-07-31 20:49:00,
2015-07-31 15:54:00,80.8,53.6,29.89,NW,317,11.0,16.0,39,0.00,,---,0.00,VWS V15.00,2015-07-31 20:54:00,
2015-07-31 15:59:00,80.4,53.9,29.89,West,273,3.0,17.0,40,0.00,,---,0.00,VWS V15.00,2015-07-31 20:59:00,
2015-07-31 16:04:00,80.0,54.2,29.89,NNW,327,4.0,14.0,41,0.00,,---,0.00,VWS V15.00,2015-07-31 21:04:00,
2015-07-31 16:09:00,80.0,54.9,29.89,West,268,16.0,16.0,42,0.00,,---,0.00,VWS V15.00,2015-07-31 21:09:00,